IRIDIUM 44

Satellite information

Favourite Embed

Satellite Type and Status

PAYLOADIN ORBIT

Key statistics

Satellite IRIDIUM 44 at a glance.

Uptime

10133

Days in orbit

Revolutions

≈ 14.4

Per day

Orbit

LEO

Low Earth Orbit

Inclination

86.4

Latest

Satellite identification and parameters

Extended collection of information and parameters for IRIDIUM 44.

Object identification

Identified? True

Debris? False

Object name: IRIDIUM 44

International designator: 1997-077B

Object number (NORAD): 25078

Object ID (CCSDS): 25078

Country: UNITED STATES OF AMERICA (US)

Current information (Y/N): Y

RCS size: LARGE

Orbital parameters

Period: 99.979 minutes

Inclination: 86.4022 deg

SMA: 7135.632 km

Apoapsis: 760.235 km

Periapsis: 754.759 km

RAAN: 187.9556 deg

Eccentricy: 0.00038371

Argument of periapsis: 105.3338 deg

Mean anomaly: 254.8286 deg

Mean motion: 14.40303782 rev/day

Mean motion (dot): 0.00000852 rev/day2

B* drag term: 0.00026278195 1/REarth

Two-line elements (TLE)

Creation date: Sept. 4, 2025, 10:13 a.m.

Reference frame: TEME

Reference center: EARTH

Epoch: Sept. 4, 2025, 2:57 a.m. UTC

TLE line 0: 0 IRIDIUM 44

TLE line 1: 1 25078U 97077B 25247.12343837 .00000852 00000-0 26278-3 0 9996

TLE line 2: 2 25078 86.4022 187.9556 0003837 105.3338 254.8286 14.40303782455068

Live tracking on map

Real-time ground track for satellite IRIDIUM 44.

In-orbit conjunctions

A list of the most updated potential collisions computed for object IRIDIUM 44.

Target Orbit TCA Probability of collision Miss distance Type
SL-8 DEB LEO 2025-08-16 09:03:41 0.0008809691 761.0 (m) DEBRIS
FENGYUN 1C DEB SSO 2025-03-15 05:05:31 0.0002798018 77.0 (m) DEBRIS
COSMOS 2251 DEB LEO 2025-02-22 02:36:20 0.0001437179 639.0 (m) DEBRIS
FENGYUN 1C DEB SSO 2024-12-31 18:21:13 0.0001021112 41.0 (m) DEBRIS
NOAA 16 DEB SSO 2024-09-27 00:40:22 0.0002964015 229.0 (m) DEBRIS

Associated space launch

Iridium provides global mobile telecommunications services using a constellation of 66 low earth orbit satellites in a 86.4° inclined orbit. Although 77 satellites were originally envisioned for the system and spawned the name based on the 77th element in the periodic table, the system has been scaled back. Motorola's Satellite Communications Group designed and manufactured the Iridium satellites with Lockheed Martin providing the LM-700A spacecraft buses.

IRIDIUM 44 was lifted into orbit during the mission ‘Long March 2C/SD | Iridium 42 & 44’, on board a Long March 2C/SD space rocket.

The launch took place on Dec. 8, 1997, 7:16 a.m. from Launch Complex 7.

For more information about the launch, click the button.

Launch to space Long March 2C/SD | Iridium 42 & 44
Long March 2C/SD | Iridium 42 & 44

Agency: N/A

Status: Launch Successful

Launch date: Dec. 8, 1997, 7:16 a.m. UTC

Rocket: Long March 2C/SD

Launch pad: Launch Complex 7

Location: Taiyuan Satellite Launch Center, People's Republic of China

...

Latest news about this satellite

There are no fresh news available about this satellite. Check back as we update our databases every day.


Newsletter sign-up

Weekly statistics, charts and insights to help you stay on top of the space industry.